Previsão horária em Almarza

Hoje, 25 Junho, Sexta-feira

Tempo Temperatura Precipitação Vento Pressão Humidade
00:00 +11°C° 0 mm 1 m/s 690 mmHg 91%
01:00 +11°C° 0 mm 1 m/s 689 mmHg 91%
02:00 +11°C° 0 mm 1 m/s 689 mmHg 90%
03:00 +10°C° 0 mm 1 m/s 689 mmHg 89%
04:00 +11°C° 0 mm 1 m/s 689 mmHg 86%
05:00 +12°C° 0 mm 1 m/s 689 mmHg 83%
06:00 +12°C° 0 mm 0 m/s 689 mmHg 80%
07:00 +15°C° 0 mm 1 m/s 689 mmHg 72%
08:00 +18°C° 0 mm 1 m/s 689 mmHg 63%
09:00 +20°C° 0 mm 1 m/s 690 mmHg 54%
10:00 +21°C° 0 mm 2 m/s 689 mmHg 50%
11:00 +23°C° 0 mm 2 m/s 689 mmHg 46%
12:00 +25°C° 0 mm 3 m/s 689 mmHg 42%
13:00 +25°C° 0 mm 3 m/s 689 mmHg 41%
14:00 +26°C° 0 mm 3 m/s 689 mmHg 40%
15:00 +26°C° 0 mm 3 m/s 688 mmHg 39%
16:00 +25°C° 0 mm 2 m/s 688 mmHg 43%
17:00 +25°C° 0 mm 2 m/s 688 mmHg 47%
18:00 +24°C° 0 mm 2 m/s 688 mmHg 51%
19:00 +21°C° 0 mm 2 m/s 687 mmHg 60%
20:00 +19°C° 0 mm 1 m/s 687 mmHg 69%
21:00 +16°C° 0 mm 1 m/s 687 mmHg 79%
22:00 +16°C° 0 mm 1 m/s 687 mmHg 80%
23:00 +15°C° 0 mm 1 m/s 687 mmHg 81%

Amanhã, 26 Junho, Sábado

Tempo Temperatura Precipitação Vento Pressão Humidade
00:00 +15°C° 0 mm 1 m/s 687 mmHg 83%
01:00 +14°C° 0 mm 1 m/s 686 mmHg 82%
02:00 +14°C° 0 mm 1 m/s 686 mmHg 81%
03:00 +14°C° 0 mm 1 m/s 686 mmHg 80%
04:00 +15°C° 0 mm 1 m/s 686 mmHg 79%
05:00 +15°C° 0 mm 1 m/s 686 mmHg 78%
06:00 +16°C° 0 mm 1 m/s 686 mmHg 77%
07:00 +19°C° 0 mm 1 m/s 686 mmHg 68%
08:00 +21°C° 0 mm 2 m/s 686 mmHg 59%
09:00 +24°C° 0 mm 2 m/s 686 mmHg 50%
10:00 +26°C° 0 mm 3 m/s 686 mmHg 44%
11:00 +27°C° 0 mm 3 m/s 686 mmHg 39%
12:00 +29°C° 0 mm 4 m/s 686 mmHg 33%
13:00 +29°C° 0 mm 4 m/s 685 mmHg 32%
14:00 +29°C° 0 mm 4 m/s 685 mmHg 30%
15:00 +30°C° 0 mm 4 m/s 685 mmHg 28%
16:00 +28°C° 0 mm 3 m/s 684 mmHg 35%
17:00 +27°C° 0 mm 2 m/s 684 mmHg 41%
18:00 +25°C° 0 mm 1 m/s 684 mmHg 48%
19:00 +23°C° 0 mm 1 m/s 684 mmHg 53%
20:00 +21°C° 0 mm 1 m/s 684 mmHg 58%
21:00 +19°C° 0 mm 1 m/s 684 mmHg 63%
22:00 +18°C° 0.1 mm 1 m/s 684 mmHg 68%
23:00 +16°C° 0.1 mm 1 m/s 684 mmHg 72%

Depois de amanhã, 27 Junho, Domingo

Tempo Temperatura Precipitação Vento Pressão Humidade
00:00 +15°C° 0.1 mm 1 m/s 684 mmHg 77%
01:00 +15°C° 0 mm 1 m/s 683 mmHg 77%
02:00 +14°C° 0 mm 1 m/s 683 mmHg 77%
03:00 +14°C° 0 mm 1 m/s 683 mmHg 78%
04:00 +14°C° 0 mm 1 m/s 683 mmHg 77%
05:00 +15°C° 0 mm 1 m/s 683 mmHg 75%
06:00 +15°C° 0 mm 1 m/s 683 mmHg 74%
07:00 +18°C° 0 mm 1 m/s 683 mmHg 66%
08:00 +19°C° 0 mm 2 m/s 684 mmHg 59%
09:00 +21°C° 0 mm 2 m/s 684 mmHg 51%
10:00 +22°C° 0 mm 3 m/s 684 mmHg 47%
11:00 +24°C° 0 mm 3 m/s 684 mmHg 43%
12:00 +25°C° 0 mm 4 m/s 684 mmHg 40%
13:00 +23°C° 0.1 mm 4 m/s 684 mmHg 44%
14:00 +21°C° 0.1 mm 4 m/s 684 mmHg 48%
15:00 +20°C° 0.1 mm 4 m/s 684 mmHg 53%
16:00 +19°C° 0 mm 4 m/s 684 mmHg 57%
17:00 +18°C° 0 mm 4 m/s 684 mmHg 61%
18:00 +16°C° 0 mm 3 m/s 684 mmHg 65%
19:00 +13°C° 0 mm 3 m/s 684 mmHg 70%
20:00 +13°C° 0 mm 2 m/s 684 mmHg 74%
21:00 +11°C° 0 mm 1 m/s 684 mmHg 79%
22:00 +10°C° 0 mm 1 m/s 684 mmHg 79%
23:00 +10°C° 0 mm 1 m/s 684 mmHg 79%

28 Junho, Segunda-feira

Tempo Temperatura Precipitação Vento Pressão Humidade
00:00 +10°C° 0 mm 1 m/s 684 mmHg 79%
01:00 +10°C° 0 mm 1 m/s 684 mmHg 77%
02:00 +9°C° 0 mm 1 m/s 684 mmHg 74%
03:00 +9°C° 0 mm 1 m/s 684 mmHg 72%
04:00 +10°C° 0 mm 1 m/s 684 mmHg 70%
05:00 +11°C° 0 mm 1 m/s 684 mmHg 69%
06:00 +11°C° 0 mm 1 m/s 685 mmHg 67%
07:00 +13°C° 0 mm 2 m/s 685 mmHg 60%
08:00 +16°C° 0 mm 2 m/s 686 mmHg 54%
09:00 +18°C° 0 mm 2 m/s 686 mmHg 47%
10:00 +19°C° 0 mm 2 m/s 686 mmHg 45%
11:00 +20°C° 0 mm 3 m/s 686 mmHg 42%
12:00 +22°C° 0 mm 3 m/s 687 mmHg 40%
13:00 +21°C° 0 mm 3 m/s 687 mmHg 41%
14:00 +21°C° 0 mm 3 m/s 687 mmHg 42%
15:00 +21°C° 0 mm 4 m/s 686 mmHg 43%
16:00 +20°C° 0 mm 4 m/s 686 mmHg 47%
17:00 +20°C° 0 mm 4 m/s 686 mmHg 52%
18:00 +19°C° 0 mm 3 m/s 686 mmHg 57%
19:00 +17°C° 0 mm 3 m/s 687 mmHg 67%
20:00 +15°C° 0 mm 2 m/s 687 mmHg 77%
21:00 +12°C° 0 mm 1 m/s 687 mmHg 87%
22:00 +12°C° 0 mm 1 m/s 687 mmHg 89%
23:00 +11°C° 0 mm 1 m/s 687 mmHg 90%

29 Junho, Terça-feira

Tempo Temperatura Precipitação Vento Pressão Humidade
00:00 +11°C° 0 mm 1 m/s 687 mmHg 92%
01:00 +11°C° 0 mm 1 m/s 687 mmHg 92%
02:00 +10°C° 0 mm 1 m/s 687 mmHg 93%
03:00 +10°C° 0 mm 1 m/s 687 mmHg 93%
04:00 +11°C° 0 mm 1 m/s 687 mmHg 91%
05:00 +12°C° 0 mm 1 m/s 687 mmHg 88%
06:00 +12°C° 0 mm 1 m/s 688 mmHg 85%
07:00 +14°C° 0 mm 1 m/s 688 mmHg 75%
08:00 +16°C° 0 mm 1 m/s 688 mmHg 65%
09:00 +19°C° 0 mm 1 m/s 689 mmHg 55%
10:00 +19°C° 0 mm 2 m/s 689 mmHg 52%
11:00 +20°C° 0 mm 3 m/s 689 mmHg 49%
12:00 +22°C° 0 mm 3 m/s 689 mmHg 45%
13:00 +21°C° 0 mm 3 m/s 689 mmHg 47%
14:00 +21°C° 0 mm 3 m/s 688 mmHg 48%
15:00 +21°C° 0 mm 3 m/s 688 mmHg 50%
16:00 +20°C° 0 mm 3 m/s 688 mmHg 55%
17:00 +19°C° 0 mm 3 m/s 688 mmHg 60%
18:00 +18°C° 0 mm 3 m/s 688 mmHg 65%
19:00 +16°C° 0 mm 3 m/s 688 mmHg 74%
20:00 +15°C° 0 mm 2 m/s 688 mmHg 82%
21:00 +13°C° 0 mm 2 m/s 688 mmHg 91%
22:00 +12°C° 0 mm 1 m/s 688 mmHg 92%
23:00 +12°C° 0 mm 1 m/s 688 mmHg 92%

30 Junho, Quarta-feira

Tempo Temperatura Precipitação Vento Pressão Humidade
00:00 +11°C° 0 mm 1 m/s 688 mmHg 93%
01:00 +11°C° 0 mm 1 m/s 688 mmHg 93%
02:00 +11°C° 0 mm 1 m/s 687 mmHg 93%
03:00 +10°C° 0 mm 1 m/s 687 mmHg 93%
04:00 +11°C° 0 mm 1 m/s 687 mmHg 91%
05:00 +11°C° 0 mm 1 m/s 687 mmHg 89%
06:00 +12°C° 0 mm 1 m/s 687 mmHg 87%
07:00 +14°C° 0 mm 1 m/s 688 mmHg 78%
08:00 +16°C° 0 mm 1 m/s 688 mmHg 69%
09:00 +18°C° 0 mm 2 m/s 688 mmHg 60%
10:00 +20°C° 0 mm 2 m/s 688 mmHg 56%
11:00 +21°C° 0 mm 2 m/s 688 mmHg 52%
12:00 +22°C° 0 mm 3 m/s 688 mmHg 48%
13:00 +22°C° 0 mm 3 m/s 688 mmHg 48%
14:00 +22°C° 0 mm 3 m/s 688 mmHg 48%
15:00 +22°C° 0 mm 4 m/s 688 mmHg 49%
16:00 +21°C° 0 mm 4 m/s 688 mmHg 53%
17:00 +20°C° 0 mm 4 m/s 688 mmHg 57%
18:00 +19°C° 0 mm 4 m/s 688 mmHg 62%
19:00 +17°C° 0 mm 3 m/s 688 mmHg 71%
20:00 +15°C° 0 mm 2 m/s 688 mmHg 81%
21:00 +13°C° 0 mm 1 m/s 688 mmHg 91%
22:00 +13°C° 0 mm 1 m/s 688 mmHg 91%
23:00 +12°C° 0 mm 1 m/s 688 mmHg 91%
Mostrar mais